Location: *
(48.8489°N, 2.3218°E)
Time: 15:34:22
(UTC+00:00)

Meteor 2-9 Rocket - Pass Details

Date: 23 August 2019
Orbit: 791 x 895 km, 81.3° (Epoch: 18 September)

Event Time Altitude Azimuth Distance (km) Brightness Sun altitude
Exits shadow 21:54:52 58° 127° (SE) 1,043 4.3 -24.4°
Maximum altitude 21:55:31 61° 96° (E) 1,009 4.3 -24.5°
Drops below altitude 10° 22:01:18 10° 18° (NNE) 2,577 7.2 -25.0°
Sets 22:03:47 0° 15° (NNE) 3,516 8.1 -25.2°
